Weather History for North Bend, OR

Change the Weather History Date:

Tuesday, April 15, 2014

  Actual Average Record
Temperature  
Mean Temperature 51 °F 49 °F  
Max Temperature 57 °F 55 °F 84 °F (1947)
Min Temperature 45 °F 43 °F 30 °F (1912)
Degree Days  
Heating Degree Days 14 16  
Month to date heating degree days 216 249  
Since 1 July heating degree days 3449 3961  
Cooling Degree Days 0 0  
Month to date cooling degree days 0 0  
Year to date cooling degree days 0 0  
Moisture  
Dew Point 45 °F    
Average Humidity 82    
Maximum Humidity 100    
Minimum Humidity 66    
Precipitation  
Precipitation 0.00 in 0.17 in 1.58 in (2006)
Month to date precipitation 0.60 2.93  
Year to date precipitation 16.67 28.54  
Sea Level Pressure  
Sea Level Pressure 30.26 in    
Wind  
Wind Speed 10 mph (North)    
Max Wind Speed 21 mph    
Max Gust Speed 24 mph    
Visibility 10 miles    
Events      
T = Trace of Precipitation, MM = Missing Value Source: NWS Daily Summary

Daily Weather History Graph

Daily Weather History Graph

Search for Another Location

Airport:

Trip Planner

Search our weather history database for the weather conditions in past years. The results will help you decide how hot, cold, wet, or windy it might be!

Date:

Astronomy

Apr. 15, 2014 Rise Set
Actual Time 6:34 AM PDT 8:00 PM PDT
Civil Twilight 6:04 AM PDT 8:30 PM PDT
Nautical Twilight 5:28 AM PDT 9:06 PM PDT
Astronomical Twilight 4:50 AM PDT 9:44 PM PDT
Moon 8:48 PM PDT (4/15) 6:45 AM PDT (4/15)
Length of Visible Light 14h 25m
Length of Day
13h 25m
Full, 100% of the Moon is Illuminated
Apr 15
Full
Apr 22
Last Quarter
Apr 28
New
May 6
First Quarter
May 14
Full

Hourly Weather History & Observations

Time (PDT) Temp. Windchill Dew Point Humidity Pressure Visibility Wind Dir Wind Speed Gust Speed Precip Events Conditions
12:15 AM 51.8 °F - 46.4 °F 82% 30.29 in 10.0 mi North 13.8 mph 20.7 mph N/A   Overcast
12:35 AM 51.8 °F - 44.6 °F 76% 30.29 in 10.0 mi North 16.1 mph 20.7 mph N/A   Overcast
12:55 AM 50.0 °F - 46.4 °F 87% 30.30 in 10.0 mi North 12.7 mph - N/A   Overcast
1:15 AM 50.0 °F - 44.6 °F 82% 30.29 in 10.0 mi North 11.5 mph - N/A   Scattered Clouds
1:35 AM 48.2 °F - 44.6 °F 87% 30.30 in 10.0 mi North 9.2 mph - N/A   Partly Cloudy
1:55 AM 48.2 °F - 44.6 °F 87% 30.30 in 10.0 mi North 6.9 mph - N/A   Partly Cloudy
2:15 AM 48.2 °F - 46.4 °F 93% 30.30 in 10.0 mi North 8.1 mph - N/A   Partly Cloudy
2:35 AM 48.2 °F - 46.4 °F 93% 30.29 in 10.0 mi North 6.9 mph - N/A   Mostly Cloudy
2:55 AM 48.2 °F - 46.4 °F 93% 30.29 in 10.0 mi North 8.1 mph - N/A   Overcast
3:15 AM 48.2 °F - 46.4 °F 93% 30.28 in 10.0 mi North 3.5 mph - N/A   Overcast
3:35 AM 48.2 °F - 46.4 °F 93% 30.27 in 10.0 mi NNE 4.6 mph - N/A   Overcast
3:55 AM 48.2 °F - 44.6 °F 87% 30.27 in 10.0 mi NNE 3.5 mph - N/A   Overcast
4:15 AM 48.2 °F - 44.6 °F 87% 30.27 in 10.0 mi NNE 3.5 mph - N/A   Overcast
4:35 AM 48.2 °F - 44.6 °F 87% 30.27 in 10.0 mi Calm Calm - N/A   Overcast
4:55 AM 48.2 °F - 44.6 °F 87% 30.27 in 10.0 mi North 4.6 mph - N/A   Mostly Cloudy
5:15 AM 46.4 °F 45.2 °F 44.6 °F 93% 30.27 in 10.0 mi North 3.5 mph - N/A   Mostly Cloudy
5:35 AM 46.4 °F 45.2 °F 44.6 °F 93% 30.28 in 10.0 mi North 3.5 mph - N/A   Partly Cloudy
5:55 AM 46.4 °F 44.3 °F 44.6 °F 93% 30.28 in 10.0 mi NNE 4.6 mph - N/A   Clear
6:15 AM 46.4 °F 44.3 °F 44.6 °F 93% 30.28 in 10.0 mi NNE 4.6 mph - N/A   Clear
6:35 AM 46.4 °F 45.2 °F 44.6 °F 93% 30.28 in 10.0 mi NNE 3.5 mph - N/A   Clear
6:55 AM 46.4 °F 44.3 °F 44.6 °F 93% 30.29 in 10.0 mi NNE 4.6 mph - N/A   Clear
7:15 AM 44.6 °F 43.1 °F 42.8 °F 93% 30.29 in 10.0 mi NE 3.5 mph - N/A   Clear
7:35 AM 46.4 °F - 44.6 °F 93% 30.29 in 10.0 mi Calm Calm - N/A   Clear
7:55 AM 46.4 °F - 46.4 °F 100% 30.30 in 10.0 mi Calm Calm - N/A   Clear
8:15 AM 48.2 °F - 46.4 °F 93% 30.30 in 10.0 mi NE 3.5 mph - N/A   Clear
8:35 AM 48.2 °F - 44.6 °F 87% 30.29 in 10.0 mi NE 4.6 mph - N/A   Clear
8:55 AM 51.8 °F - 44.6 °F 76% 30.29 in 10.0 mi NE 5.8 mph - N/A   Clear
9:15 AM 51.8 °F - 44.6 °F 76% 30.29 in 10.0 mi NE 6.9 mph - N/A   Clear
9:55 AM 53.6 °F - 42.8 °F 67% 30.29 in 10.0 mi NE 6.9 mph - N/A   Clear
10:15 AM 55.4 °F - 42.8 °F 63% 30.28 in 10.0 mi NE 8.1 mph - N/A   Partly Cloudy
10:55 AM 55.4 °F - 44.6 °F 67% 30.29 in 10.0 mi NNW 12.7 mph 16.1 mph N/A   Partly Cloudy
11:15 AM 53.6 °F - 44.6 °F 72% 30.28 in 10.0 mi NNW 13.8 mph - N/A   Clear
11:35 AM 55.4 °F - 44.6 °F 67% 30.28 in 10.0 mi NNW 13.8 mph 19.6 mph N/A   Clear
11:55 AM 55.4 °F - 44.6 °F 67% 30.28 in 10.0 mi NNW 16.1 mph - N/A   Clear
12:15 PM 55.4 °F - 46.4 °F 72% 30.28 in 10.0 mi NNW 17.3 mph 23.0 mph N/A   Clear
12:35 PM 55.4 °F - 44.6 °F 67% 30.28 in 10.0 mi North 18.4 mph - N/A   Clear
12:55 PM 55.4 °F - 44.6 °F 67% 30.28 in 10.0 mi North 16.1 mph - N/A   Clear
1:15 PM 55.4 °F - 44.6 °F 67% 30.28 in 10.0 mi NNW 16.1 mph 21.9 mph N/A   Clear
1:35 PM 55.4 °F - 44.6 °F 67% 30.28 in 10.0 mi North 17.3 mph 21.9 mph N/A   Clear
1:55 PM 55.4 °F - 46.4 °F 72% 30.27 in 10.0 mi North 16.1 mph 21.9 mph N/A   Clear
2:15 PM 55.4 °F - 44.6 °F 67% 30.26 in 10.0 mi North 17.3 mph 21.9 mph N/A   Clear
2:35 PM 55.4 °F - 44.6 °F 67% 30.26 in 10.0 mi North 17.3 mph 24.2 mph N/A   Clear
2:55 PM 55.4 °F - 44.6 °F 67% 30.25 in 10.0 mi North 18.4 mph 24.2 mph N/A   Clear
3:15 PM 53.6 °F - 44.6 °F 72% 30.25 in 10.0 mi North 19.6 mph 25.3 mph N/A   Clear
3:35 PM 53.6 °F - 46.4 °F 77% 30.24 in 10.0 mi North 16.1 mph 26.5 mph N/A   Clear
3:55 PM 53.6 °F - 44.6 °F 72% 30.24 in 10.0 mi North 15.0 mph 23.0 mph N/A   Clear
4:15 PM 53.6 °F - 46.4 °F 77% 30.24 in 10.0 mi NNW 18.4 mph 21.9 mph N/A   Clear
4:35 PM 55.4 °F - 46.4 °F 72% 30.23 in 10.0 mi North 18.4 mph - N/A   Clear
4:55 PM 53.6 °F - 46.4 °F 77% 30.23 in 10.0 mi North 18.4 mph - N/A   Clear
5:15 PM 53.6 °F - 46.4 °F 77% 30.23 in 10.0 mi North 15.0 mph - N/A   Partly Cloudy
5:35 PM 53.6 °F - 46.4 °F 77% 30.22 in 10.0 mi North 19.6 mph 24.2 mph N/A   Partly Cloudy
5:55 PM 53.6 °F - 46.4 °F 77% 30.22 in 10.0 mi North 20.7 mph - N/A   Partly Cloudy
6:15 PM 51.8 °F - 46.4 °F 82% 30.22 in 10.0 mi North 13.8 mph - N/A   Clear
6:35 PM 51.8 °F - 46.4 °F 82% 30.21 in 10.0 mi North 15.0 mph - N/A   Scattered Clouds
6:55 PM 51.8 °F - 46.4 °F 82% 30.21 in 10.0 mi North 17.3 mph - N/A   Overcast
7:15 PM 51.8 °F - 46.4 °F 82% 30.20 in 10.0 mi North 16.1 mph - N/A   Overcast
7:35 PM 51.8 °F - 46.4 °F 82% 30.20 in 10.0 mi North 12.7 mph 19.6 mph N/A   Overcast
7:55 PM 51.8 °F - 46.4 °F 82% 30.19 in 10.0 mi North 11.5 mph - N/A   Overcast
8:15 PM 51.8 °F - 46.4 °F 82% 30.20 in 10.0 mi North 9.2 mph - N/A   Overcast
8:35 PM 51.8 °F - 46.4 °F 82% 30.20 in 10.0 mi North 12.7 mph - N/A   Overcast
8:55 PM 51.8 °F - 46.4 °F 82% 30.20 in 10.0 mi North 9.2 mph 16.1 mph N/A   Mostly Cloudy
9:15 PM 51.8 °F - 46.4 °F 82% 30.21 in 10.0 mi North 9.2 mph - N/A   Mostly Cloudy
9:35 PM 50.0 °F - 46.4 °F 87% 30.21 in 10.0 mi North 6.9 mph - N/A   Mostly Cloudy
9:55 PM 50.0 °F - 46.4 °F 87% 30.21 in 10.0 mi NNE 6.9 mph - N/A   Clear
10:15 PM 48.2 °F - 46.4 °F 93% 30.21 in 10.0 mi NNE 5.8 mph - N/A   Clear
10:35 PM 48.2 °F - 46.4 °F 93% 30.20 in 10.0 mi NNE 4.6 mph - N/A   Clear
10:55 PM 48.2 °F - 46.4 °F 93% 30.21 in 10.0 mi North 3.5 mph - N/A   Clear
11:15 PM 48.2 °F - 46.4 °F 93% 30.22 in 10.0 mi Calm Calm - N/A   Clear
11:35 PM 48.2 °F - 46.4 °F 93% 30.21 in 10.0 mi Calm Calm - N/A   Scattered Clouds
11:55 PM 46.4 °F - 44.6 °F 93% 30.21 in 10.0 mi Calm Calm - N/A   Partly Cloudy